Goodland, KS

1:31 PM MDT on July 26, 2017 (GMT -0600)
Renner-Goodland Municipal

Weather History for KGLD - December, 2012

Change the Weather History Date:

Sunday, December 9, 2012

  Actual Average Record
Temperature  
Mean Temperature 17 °F 30 °F  
Max Temperature 33 °F 43 °F 76 °F (1939)
Min Temperature 0 °F 18 °F -23 °F (1919)
Degree Days  
Heating Degree Days 48 35  
Month to date heating degree days 230 305  
Since 1 July heating degree days 1386 1624  
Cooling Degree Days 0 0  
Month to date cooling degree days 0 0  
Year to date cooling degree days 1338 941  
Moisture  
Dew Point 2 °F    
Average Humidity 54    
Maximum Humidity 69    
Minimum Humidity 39    
Precipitation  
Precipitation 0.00 in 0.01 in 0.51 in (1923)
Month to date precipitation 0.00 0.14  
Year to date precipitation 9.02 19.34  
Snow  
Snow 0.00 in 0.20 in - ()
Month to date snowfall 0.0 1.6  
Since 1 July snowfall 0.5 8.8  
Snow Depth 0.00 in    
Sea Level Pressure  
Sea Level Pressure 30.19 in    
Wind  
Wind Speed 21 mph (NNW)    
Max Wind Speed 36 mph    
Max Gust Speed 44 mph    
Visibility 10 miles    
Events      
T = Trace of Precipitation, MM = Missing Value Source: NWS Daily Summary

Daily Weather History Graph

Daily Weather History Graph

Search for Another Location

Airport or City:

Trip Planner

Search our weather history database for the weather conditions in past years. The results will help you decide how hot, cold, wet, or windy it might be!

Date:

Astronomy

Dec. 09, 2012 Rise Set
Actual Time 6:55 AM MST 4:23 PM MST
Civil Twilight 6:25 AM MST 4:53 PM MST
Nautical Twilight 5:51 AM MST 5:26 PM MST
Astronomical Twilight 5:19 AM MST 5:59 PM MST
Moon 2:31 AM MST (12/9) 1:30 PM MST (12/9)
Length of Visible Light 10h 27m
Length of Day
9h 27m
Waning Crescent, 18% of the Moon is Illuminated
Dec 9
Waning Crescent
Dec 13
New
Dec 19
First Quarter
Dec 28
Full
Jan 4
Last Quarter

Hourly Weather History & Observations

Time (MST) Temp. Windchill Dew Point Humidity Pressure Visibility Wind Dir Wind Speed Gust Speed Precip Events Conditions
12:53 AM 33.1 °F 20.6 °F 16.0 °F 50% 29.91 in 10.0 mi NNW 23.0 mph 27.6 mph N/A   Overcast
1:53 AM 30.9 °F 17.8 °F 14.0 °F 50% 29.94 in 10.0 mi North 23.0 mph 31.1 mph N/A   Overcast
2:53 AM 28.0 °F 13.3 °F 9.0 °F 45% 29.97 in 10.0 mi NNW 25.3 mph 32.2 mph N/A   Overcast
3:53 AM 26.1 °F 14.0 °F 8.1 °F 47% 30.01 in 10.0 mi NNW 15.0 mph 25.3 mph N/A   Overcast
4:53 AM 25.0 °F 11.3 °F 7.0 °F 46% 30.04 in 10.0 mi NNW 18.4 mph - N/A   Overcast
5:53 AM 21.0 °F 5.4 °F 6.1 °F 53% 30.07 in 10.0 mi NNW 20.7 mph 25.3 mph N/A   Overcast
6:53 AM 19.0 °F 1.3 °F 5.0 °F 54% 30.13 in 10.0 mi NNW 25.3 mph 32.2 mph N/A   Overcast
7:53 AM 18.0 °F 0.2 °F 3.0 °F 52% 30.14 in 10.0 mi NNW 24.2 mph 35.7 mph N/A   Overcast
8:53 AM 18.0 °F -0.2 °F 3.9 °F 54% 30.17 in 10.0 mi NNW 25.3 mph 34.5 mph N/A   Mostly Cloudy
9:53 AM 18.0 °F -1.1 °F 3.0 °F 52% 30.21 in 10.0 mi NNW 28.8 mph 34.5 mph N/A   Clear
10:53 AM 21.9 °F 3.4 °F 3.0 °F 44% 30.18 in 10.0 mi NNW 32.2 mph 41.4 mph N/A   Clear
11:53 AM 23.0 °F 6.0 °F 3.0 °F 42% 30.17 in 10.0 mi NNW 27.6 mph 40.3 mph N/A   Clear
12:53 PM 23.0 °F 4.9 °F 1.9 °F 40% 30.17 in 10.0 mi North 32.2 mph 42.6 mph N/A   Clear
1:53 PM 23.0 °F 5.4 °F 1.9 °F 40% 30.19 in 10.0 mi NNW 29.9 mph 38.0 mph N/A   Clear
2:53 PM 21.2 °F 3.5 °F 1.4 °F 42% 30.14 in 10.0 mi North 27.6 mph 35.7 mph N/A   Clear
3:53 PM 19.0 °F 2.4 °F -0.0 °F 43% 30.26 in 10.0 mi North 21.9 mph 31.1 mph N/A   Clear
4:53 PM 16.0 °F -0.4 °F -2.0 °F 45% 30.30 in 10.0 mi North 18.4 mph 26.5 mph N/A   Clear
5:53 PM 14.0 °F -3.0 °F -2.9 °F 47% 30.32 in 10.0 mi North 18.4 mph - N/A   Clear
6:53 PM 12.0 °F -4.0 °F -2.9 °F 51% 30.35 in 10.0 mi NNW 15.0 mph - N/A   Clear
7:53 PM 7.0 °F -7.5 °F -4.0 °F 61% 30.38 in 10.0 mi NNW 10.4 mph - N/A   Clear
8:53 PM 5.0 °F -9.1 °F -5.1 °F 63% 30.38 in 10.0 mi NNW 9.2 mph - 0.00 in   Clear
9:53 PM 3.0 °F -8.0 °F -7.1 °F 63% 30.36 in 10.0 mi NW 5.8 mph - N/A   Clear
10:53 PM 1.9 °F -11.8 °F -8.0 °F 63% 30.33 in 10.0 mi West 8.1 mph - N/A   Clear
11:53 PM 1.9 °F -13.8 °F -7.1 °F 66% 30.30 in 10.0 mi West 10.4 mph - N/A   Clear